| time (UTC) | temp C | wind direction | speed KPH | gust KPH | rain 1hr cm | rain 24hr cm | rain mn cm | humidity % | barometer mb |
| 20260506201247 | 14 | 242 | 1.6 | 6.4 | 0.00 | 0.41 | 0.41 | 95 | 1004.0 |
| 20260506194244 | 14 | 228 | 1.6 | 8.0 | 0.00 | 0.28 | 0.28 | 94 | 1004.4 |
| 20260506191239 | 14 | 228 | 3.2 | 8.0 | 0.00 | 0.23 | 0.23 | 93 | 1004.4 |
| 20260506184235 | 15 | 222 | 3.2 | 16.1 | 0.00 | 0.20 | 0.20 | 93 | 1004.7 |
| 20260506181234 | 15 | 216 | 0.0 | 4.8 | 0.00 | 0.15 | 0.15 | 89 | 1005.0 |
| 20260506171227 | 16 | 222 | 1.6 | 11.3 | 0.00 | 0.03 | 0.03 | 82 | 1005.7 |
| 20260506161222 | 18 | 196 | 3.2 | 11.3 | 0.00 | 0.00 | 0.00 | 75 | 1005.7 |
| 20260506154221 | 18 | 180 | 3.2 | 9.7 | 0.00 | 0.00 | 0.00 | 73 | 1005.7 |
| 20260506141220 | 18 | 212 | 1.6 | 11.3 | 0.00 | 0.00 | 0.00 | 76 | 1006.4 |
| 20260506131210 | 16 | 216 | 1.6 | 11.3 | 0.00 | 0.00 | 0.00 | 82 | 1006.4 |
| 20260506124206 | 15 | 203 | 3.2 | 8.0 | 0.00 | 0.00 | 0.00 | 85 | 1006.7 |
| 20260506121313 | 15 | 199 | 1.6 | 8.0 | 0.00 | 0.00 | 0.00 | 87 | 1007.4 |
| 20260506121238 | 15 | 199 | 1.6 | 8.0 | 0.00 | 0.00 | 0.00 | 87 | 1007.4 |
| 20260506114204 | 13 | 227 | 3.2 | 8.0 | 0.00 | 0.00 | 0.00 | 89 | 1007.4 |
| 20260506111204 | 13 | 208 | 1.6 | 8.0 | 0.00 | 0.00 | 0.00 | 91 | 1007.4 |
| 20260506104201 | 12 | 242 | 1.6 | 4.8 | 0.00 | 0.00 | 0.00 | 91 | 1007.7 |
| 20260506101156 | 12 | 216 | 1.6 | 6.4 | 0.00 | 0.00 | 0.00 | 90 | 1007.7 |
| 20260506094204 | 12 | 224 | 1.6 | 4.8 | 0.00 | 0.00 | 0.00 | 89 | 1007.4 |
| 20260506091152 | 12 | 246 | 1.6 | 8.0 | 0.00 | 0.00 | 0.00 | 89 | 1007.4 |
| 20260506084148 | 12 | 246 | 1.6 | 6.4 | 0.00 | 0.00 | 0.00 | 87 | 1007.4 |
| 20260506071145 | 13 | 240 | 3.2 | 8.0 | 0.00 | 0.00 | 0.00 | 84 | 1007.4 |
| 20260506061144 | 14 | 233 | 3.2 | 11.3 | 0.00 | 0.00 | 0.00 | 79 | 1006.7 |
| 20260506041127 | 15 | 221 | 3.2 | 9.7 | 0.00 | 0.00 | 0.00 | 74 | 1007.4 |
| 20260506034124 | 15 | 255 | 1.6 | 9.7 | 0.00 | 0.00 | 0.00 | 74 | 1007.4 |
| 20260506031123 | 15 | 234 | 1.6 | 8.0 | 0.00 | 0.00 | 0.00 | 73 | 1007.4 |
| 20260506024120 | 16 | 220 | 3.2 | 9.7 | 0.00 | 0.00 | 0.00 | 71 | 1007.4 |
| 20260506021119 | 16 | 215 | 3.2 | 9.7 | 0.00 | 0.00 | 0.00 | 68 | 1007.4 |
| 20260506004103 | 17 | 221 | 3.2 | 8.0 | 0.00 | 0.00 | 0.00 | 65 | 1006.0 |
| 20260506001101 | 18 | 208 | 3.2 | 8.0 | 0.00 | 0.00 | 0.00 | 63 | 1005.4 |
| 20260505234059 | 18 | 212 | 3.2 | 9.7 | 0.00 | 0.00 | 0.00 | 62 | 1005.4 |
| 20260505231100 | 20 | 212 | 3.2 | 9.7 | 0.00 | 0.00 | 0.00 | 58 | 1004.7 |
| 20260505224058 | 21 | 216 | 4.8 | 12.9 | 0.00 | 0.00 | 0.00 | 55 | 1004.0 |
| 20260505214054 | 23 | 223 | 3.2 | 14.5 | 0.00 | 0.00 | 0.00 | 51 | 1004.0 |
| 20260505211049 | 23 | 192 | 3.2 | 12.9 | 0.00 | 0.00 | 0.00 | 48 | 1003.3 |
| 20260505204044 | 25 | 185 | 4.8 | 14.5 | 0.00 | 0.00 | 0.00 | 47 | 1003.3 |